Lubbock, TX

1:07 AM CDT on July 26, 2017 (GMT -0500)
Lubbock International

Weather History for KLBB - July, 2013

Change the Weather History Date:

Thursday, July 18, 2013

  Actual Average Record
Temperature  
Mean Temperature 74 °F 80 °F  
Max Temperature 80 °F 93 °F 103 °F (1978)
Min Temperature 67 °F 68 °F 60 °F (1935)
Degree Days  
Heating Degree Days 0 0  
Month to date heating degree days 0 0  
Since 1 June heating degree days 0 2  
Since 1 July heating degree days 0 0  
Cooling Degree Days 9 15  
Month to date cooling degree days 255 270  
Year to date cooling degree days 1044 890  
Since 1 June cooling degree days 729 644  
Growing Degree Days 23 (Base 50)    
Moisture  
Dew Point 66 °F    
Average Humidity 79    
Maximum Humidity 100    
Minimum Humidity 58    
Precipitation  
Precipitation 0.31 in 0.05 in 1.50 in (1967)
Month to date precipitation 3.21 1.20  
Year to date precipitation 8.30 10.45  
Snow  
Snow 0.00 in 0.00 in 0.00 in (2002)
Month to date snowfall 0.0 0.0  
Since 1 June snowfall 0.0 0.0  
Since 1 July snowfall 0.0 0.0  
Snow Depth 0.00 in    
Sea Level Pressure  
Sea Level Pressure 30.19 in    
Wind  
Wind Speed 10 mph (SE)    
Max Wind Speed 21 mph    
Max Gust Speed 25 mph    
Visibility 8 miles    
Events Rain    
T = Trace of Precipitation, MM = Missing Value Source: NWS Daily Summary

Daily Weather History Graph

Daily Weather History Graph

Search for Another Location

Airport or City:

Trip Planner

Search our weather history database for the weather conditions in past years. The results will help you decide how hot, cold, wet, or windy it might be!

Date:

Astronomy

Jul. 18, 2013 Rise Set
Actual Time 6:50 AM CDT 8:56 PM CDT
Civil Twilight 6:21 AM CDT 9:24 PM CDT
Nautical Twilight 5:47 AM CDT 9:59 PM CDT
Astronomical Twilight 5:10 AM CDT 10:35 PM CDT
Moon 4:57 PM CDT (7/18) 2:39 AM CDT (7/18)
Length of Visible Light 15h 02m
Length of Day
14h 06m
Waxing Gibbous, 77% of the Moon is Illuminated
Jul 18
Waxing Gibbous
Jul 22
Full
Jul 29
Last Quarter
Aug 6
New
Aug 14
First Quarter

Hourly Weather History & Observations

Time (CDT) Temp. Heat Index Dew Point Humidity Pressure Visibility Wind Dir Wind Speed Gust Speed Precip Events Conditions
12:01 AM 68.0 °F - 66.2 °F 94% 30.29 in 10.0 mi SE 9.2 mph - N/A   Overcast
12:13 AM 68.0 °F - 66.2 °F 94% 30.29 in 10.0 mi SE 11.5 mph - N/A   Overcast
12:21 AM 68.0 °F - 66.2 °F 94% 30.28 in 10.0 mi SE 11.5 mph - N/A   Overcast
12:44 AM 68.0 °F - 66.2 °F 94% 30.27 in 10.0 mi SE 10.4 mph - N/A   Overcast
12:53 AM 68.0 °F - 66.9 °F 96% 30.15 in 10.0 mi SE 9.2 mph - N/A   Overcast
1:26 AM 68.0 °F - 66.2 °F 94% 30.26 in 10.0 mi SE 8.1 mph - N/A   Mostly Cloudy
1:27 AM 68.0 °F - 66.2 °F 94% 30.26 in 10.0 mi SSE 8.1 mph - N/A   Overcast
1:48 AM 68.0 °F - 66.2 °F 94% 30.26 in 10.0 mi SE 6.9 mph - N/A   Mostly Cloudy
1:53 AM 68.0 °F - 66.9 °F 96% 30.14 in 10.0 mi SE 6.9 mph - N/A   Mostly Cloudy
2:14 AM 68.0 °F - 66.2 °F 94% 30.26 in 9.0 mi ESE 8.1 mph - N/A   Mostly Cloudy
2:26 AM 68.0 °F - 66.2 °F 94% 30.26 in 9.0 mi SE 9.2 mph - N/A   Mostly Cloudy
2:38 AM 68.0 °F - 66.2 °F 94% 30.02 in 8.0 mi ESE 8.1 mph - N/A   Light Drizzle
2:53 AM 68.0 °F - 66.9 °F 96% 30.13 in 8.0 mi SE 6.9 mph - N/A   Overcast
3:03 AM 68.0 °F - 66.2 °F 94% 30.26 in 7.0 mi SE 6.9 mph - 0.00 in Rain Light Rain
3:21 AM 68.0 °F - 66.2 °F 94% 30.26 in 7.0 mi SE 6.9 mph - 0.00 in Rain Light Rain
3:30 AM 68.0 °F - 66.2 °F 94% 30.25 in 9.0 mi SE 5.8 mph - 0.00 in   Overcast
3:50 AM 68.0 °F - 66.2 °F 94% 30.25 in 7.0 mi SE 6.9 mph - 0.00 in   Overcast
3:53 AM 68.0 °F - 66.9 °F 96% 30.12 in 7.0 mi SE 5.8 mph - 0.00 in   Overcast
4:09 AM 68.0 °F - 66.2 °F 94% 30.25 in 7.0 mi ESE 4.6 mph - N/A   Overcast
4:17 AM 68.0 °F - 66.2 °F 94% 30.25 in 7.0 mi SE 4.6 mph - N/A   Overcast
4:26 AM 68.0 °F - 66.2 °F 94% 30.25 in 8.0 mi SE 8.1 mph - N/A   Mostly Cloudy
4:44 AM 68.0 °F - 66.2 °F 94% 30.25 in 2.0 mi ESE 9.2 mph - N/A Rain Heavy Rain
4:47 AM 66.2 °F - 66.2 °F 100% 30.24 in 1.8 mi ESE 10.4 mph - 0.06 in Rain Heavy Rain
4:53 AM 66.9 °F - 66.0 °F 97% 30.13 in 1.8 mi SE 13.8 mph - 0.13 in Rain Heavy Rain
5:00 AM 66.2 °F - 66.2 °F 100% 30.25 in 2.0 mi SE 11.5 mph - 0.04 in Rain Heavy Rain
5:07 AM 66.2 °F - 66.2 °F 100% 30.25 in 2.5 mi SE 10.4 mph - 0.10 in Rain Heavy Rain
5:11 AM 66.2 °F - 66.2 °F 100% 30.25 in 3.0 mi SE 8.1 mph - 0.11 in Rain Rain
5:22 AM 66.2 °F - 66.2 °F 100% 30.25 in 4.0 mi ESE 9.2 mph - 0.13 in Rain Light Rain
5:29 AM 66.2 °F - 66.2 °F 100% 30.25 in 3.0 mi ESE 8.1 mph - 0.13 in Rain Heavy Rain
5:36 AM 66.2 °F - 66.2 °F 100% 30.25 in 2.5 mi ESE 8.1 mph - 0.15 in Rain Light Rain
5:51 AM 66.2 °F - 66.2 °F 100% 30.25 in 4.0 mi SSE 10.4 mph - 0.17 in Rain Light Rain
5:53 AM 66.9 °F - 66.0 °F 97% 30.14 in 5.0 mi SSE 9.2 mph - 0.17 in Rain Light Rain
6:02 AM 66.2 °F - 66.2 °F 100% 30.25 in 9.0 mi SSE 4.6 mph - 0.01 in Rain Light Rain
6:53 AM 66.9 °F - 66.0 °F 97% 30.14 in 10.0 mi ESE 5.8 mph - 0.01 in   Overcast
7:18 AM 66.2 °F - 66.2 °F 100% 30.26 in 10.0 mi SE 5.8 mph - N/A   Overcast
7:31 AM 66.2 °F - 66.2 °F 100% 30.26 in 10.0 mi SE 8.1 mph - N/A   Overcast
7:53 AM 66.9 °F - 64.9 °F 93% 30.15 in 10.0 mi SE 6.9 mph - N/A   Overcast
8:09 AM 66.2 °F - 66.2 °F 100% 30.27 in 10.0 mi SE 10.4 mph - N/A   Overcast
8:53 AM 66.9 °F - 66.0 °F 97% 30.16 in 5.0 mi SSE 9.2 mph - 0.00 in   Overcast
9:08 AM 68.0 °F - 66.2 °F 94% 30.27 in 10.0 mi SSE 9.2 mph - N/A   Overcast
9:53 AM 69.1 °F - 66.9 °F 93% 30.17 in 10.0 mi SSE 8.1 mph - N/A   Overcast
10:16 AM 69.8 °F - 66.2 °F 88% 30.28 in 10.0 mi SE 9.2 mph - N/A   Overcast
10:53 AM 71.1 °F - 66.0 °F 84% 30.15 in 10.0 mi South 9.2 mph - N/A   Overcast
11:19 AM 71.6 °F - 66.2 °F 83% 30.27 in 10.0 mi SSE 12.7 mph - N/A   Mostly Cloudy
11:22 AM 71.6 °F - 66.2 °F 83% 30.27 in 10.0 mi South 11.5 mph - N/A   Mostly Cloudy
11:35 AM 71.6 °F - 66.2 °F 83% 30.27 in 10.0 mi SSE 12.7 mph - N/A   Mostly Cloudy
11:38 AM 71.6 °F - 66.2 °F 83% 30.27 in 10.0 mi SSE 12.7 mph - N/A   Mostly Cloudy
11:53 AM 73.0 °F - 66.0 °F 79% 30.14 in 10.0 mi SSE 13.8 mph - N/A   Mostly Cloudy
12:05 PM 73.4 °F - 64.4 °F 73% 30.26 in 10.0 mi South 13.8 mph - N/A   Mostly Cloudy
12:38 PM 75.2 °F - 64.4 °F 69% 30.25 in 10.0 mi South 12.7 mph - N/A   Mostly Cloudy
12:53 PM 75.0 °F - 66.0 °F 73% 30.13 in 10.0 mi South 13.8 mph - N/A   Mostly Cloudy
1:20 PM 77.0 °F - 64.4 °F 65% 30.24 in 10.0 mi South 17.3 mph 23.0 mph N/A   Mostly Cloudy
1:53 PM 75.9 °F - 57.2 °F 52% 30.11 in 10.0 mi South 13.8 mph - N/A   Mostly Cloudy
2:53 PM 75.9 °F - 64.9 °F 69% 30.11 in 10.0 mi South 13.8 mph - N/A   Mostly Cloudy
3:53 PM 80.1 °F 81.9 °F 64.9 °F 60% 30.06 in 10.0 mi South 16.1 mph - N/A   Mostly Cloudy
4:53 PM 77.0 °F - 64.9 °F 66% 30.06 in 10.0 mi South 11.5 mph - N/A   Mostly Cloudy
5:53 PM 75.9 °F - 64.9 °F 69% 30.04 in 10.0 mi South 8.1 mph - N/A   Mostly Cloudy
6:53 PM 77.0 °F - 66.0 °F 69% 30.01 in 10.0 mi SSE 13.8 mph - N/A Rain Light Rain
7:53 PM 73.9 °F - 66.0 °F 76% 30.02 in 10.0 mi SSE 11.5 mph - 0.00 in Rain Light Rain
8:53 PM 73.9 °F - 66.0 °F 76% 30.01 in 10.0 mi SSE 10.4 mph - N/A   Scattered Clouds
9:53 PM 72.0 °F - 66.0 °F 81% 30.02 in 10.0 mi SSE 9.2 mph - N/A   Scattered Clouds
10:53 PM 71.1 °F - 66.0 °F 84% 30.04 in 10.0 mi SSE 6.9 mph - N/A   Clear
11:53 PM 71.1 °F - 66.9 °F 87% 30.05 in 10.0 mi South 11.5 mph - N/A   Partly Cloudy